Regional Weather Roundup
Issued by NWS

Home | Current Version | Previous Version | Graphics & Text | Print | Product List | Glossary On
Versions: 1 2 3 4 5 6 7 8 9 10 11 12 13 14 15 16 17 18 19 20 21 22 23 24 25 26 27
000
ASUS45 KBOI 301910
RWRID

IDAHO REGIONAL WEATHER ROUNDUP
NATIONAL WEATHER SERVICE BOISE ID
100 PM MDT SAT APR 30 2016

NOTE: "FAIR" INDICATES FEW OR NO CLOUDS BELOW 12000 FEET
WITH NO SIGNIFICANT WEATHER AND/OR OBSTRUCTIONS TO VISIBILITY

IDZ012-014-302000-
SOUTHWEST IDAHO


CITY           SKY/WX    TMP DP  RH WIND       PRES   REMARKS
BOISE          MOSUNNY   65  37  35 NW18G26   30.02F
CALDWELL       SUNNY     63  39  41 W20       30.07F
MOUNTAIN HOME  PTSUNNY   61  36  39 VRB7      30.04F
$$

IDZ016-017-302000-
SOUTHCENTRAL IDAHO


CITY           SKY/WX    TMP DP  RH WIND       PRES   REMARKS
BURLEY         CLOUDY    49  40  71 SW6       30.06S
JEROME         CLOUDY    50  39  66 SW7       30.07S
TWIN FALLS     CLOUDY    50  37  61 VRB5      30.07S
$$

IDZ019>023-302000-
SOUTHEAST IDAHO


CITY           SKY/WX    TMP DP  RH WIND       PRES   REMARKS
IDAHO FALLS    CLOUDY    57  31  37 NE9       30.02F
POCATELLO      CLOUDY    51  42  71 NW7       30.04S
REXBURG        LGT RAIN  54  30  40 NE10      30.01F
$$

IDZ006-010-011-018-031-032-302000-
CENTRAL IDAHO MOUNTAINS


CITY           SKY/WX    TMP DP  RH WIND       PRES   REMARKS
MCCALL         MOSUNNY   50  33  52 N17       30.10S
HAILEY         PTSUNNY   52  37  58 SE12      30.06S
STANLEY          N/A     47  25  42 VRB6      30.09S
SALMON         CLOUDY    50  32  50 N7        30.12S
CHALLIS        CLOUDY    52  31  44 NE14      30.08R
$$

IDZ002-004-006-007-026-302000-
NORTHERN IDAHO


CITY           SKY/WX    TMP DP  RH WIND       PRES   REMARKS
LEWISTON       CLOUDY    54  45  71 CALM      30.24R
LOWELL           N/A     56  41  57 S8        30.20S
COEUR D`ALENE  CLOUDY    55  43  62 N3        30.20S
MULLAN PASS    CLOUDY    40  31  70 CALM      30.21R
$$




USA.gov is the U.S. government's official web portal to all federal, state and local government web resources and services.